TimeHST,TemperatureF,Dew PointF,Humidity,Sea Level PressureIn,VisibilityMPH,Wind Direction,Wind SpeedMPH,Gust SpeedMPH,PrecipitationIn,Events,Conditions,WindDirDegrees,DateUTC
12:26 AM,66.9,64.0,90,30.06,10.0,SW,3.5,-,N/A,,Mostly Cloudy,230,2012-12-23 10:26:00
12:53 AM,66.9,63.0,87,30.05,10.0,WSW,8.1,-,N/A,,Overcast,240,2012-12-23 10:53:00
1:23 AM,66.9,62.1,84,30.05,10.0,WSW,6.9,-,0.00,Rain,Light Rain,250,2012-12-23 11:23:00
1:53 AM,66.9,62.1,84,30.05,8.0,SE,3.5,-,0.01,Rain,Light Rain,130,2012-12-23 11:53:00
2:05 AM,66.0,62.1,87,30.05,7.0,WSW,4.6,-,0.00,Rain,Light Rain,250,2012-12-23 12:05:00
2:13 AM,66.0,62.1,87,30.04,9.0,West,6.9,-,0.01,Rain,Light Rain,270,2012-12-23 12:13:00
2:53 AM,66.0,62.1,87,30.04,10.0,WSW,3.5,-,0.01,,Mostly Cloudy,250,2012-12-23 12:53:00
3:38 AM,66.0,62.1,87,30.04,10.0,SSW,3.5,-,0.00,Rain,Light Rain,210,2012-12-23 13:38:00
3:53 AM,66.0,62.1,87,30.04,10.0,WSW,3.5,-,0.00,,Overcast,250,2012-12-23 13:53:00
4:02 AM,66.0,62.1,87,30.03,10.0,West,3.5,-,N/A,,Overcast,280,2012-12-23 14:02:00
4:53 AM,64.9,61.0,87,30.03,10.0,SW,5.8,-,N/A,,Mostly Cloudy,230,2012-12-23 14:53:00
5:53 AM,64.9,62.1,90,30.04,10.0,SW,6.9,-,N/A,,Mostly Cloudy,230,2012-12-23 15:53:00
6:53 AM,66.0,60.1,81,30.05,10.0,WSW,6.9,-,N/A,,Mostly Cloudy,240,2012-12-23 16:53:00
7:53 AM,66.9,63.0,87,30.06,10.0,WSW,8.1,-,0.00,,Overcast,240,2012-12-23 17:53:00
8:53 AM,70.0,63.0,78,30.07,10.0,WSW,8.1,-,N/A,,Overcast,240,2012-12-23 18:53:00
9:53 AM,75.0,62.1,64,30.07,10.0,South,4.6,-,N/A,,Mostly Cloudy,190,2012-12-23 19:53:00
10:53 AM,78.1,61.0,56,30.05,10.0,ESE,11.5,-,N/A,,Partly Cloudy,120,2012-12-23 20:53:00
11:53 AM,75.9,59.0,56,30.02,10.0,SE,12.7,-,N/A,,Scattered Clouds,140,2012-12-23 21:53:00
12:53 PM,77.0,62.1,60,29.98,10.0,ESE,11.5,-,N/A,,Scattered Clouds,110,2012-12-23 22:53:00
1:23 PM,78.1,62.1,58,29.97,10.0,ESE,12.7,-,N/A,,Partly Cloudy,120,2012-12-23 23:23:00
1:53 PM,77.0,61.0,58,29.95,10.0,SE,12.7,-,N/A,,Scattered Clouds,140,2012-12-23 23:53:00
2:53 PM,75.0,62.1,64,29.94,10.0,SE,15.0,-,N/A,,Scattered Clouds,130,2012-12-24 00:53:00
3:53 PM,75.9,64.9,69,29.95,10.0,ESE,16.1,-,N/A,,Partly Cloudy,120,2012-12-24 01:53:00
4:53 PM,73.9,66.0,76,29.96,10.0,SE,9.2,-,N/A,,Mostly Cloudy,130,2012-12-24 02:53:00
5:53 PM,71.1,64.9,81,29.97,10.0,SSE,6.9,-,N/A,,Scattered Clouds,150,2012-12-24 03:53:00
6:53 PM,70.0,64.9,84,29.99,10.0,South,4.6,-,N/A,,Overcast,170,2012-12-24 04:53:00
7:53 PM,70.0,64.9,84,30.01,10.0,SSE,6.9,-,N/A,,Overcast,160,2012-12-24 05:53:00
8:53 PM,70.0,64.9,84,30.02,10.0,SE,5.8,-,N/A,,Overcast,130,2012-12-24 06:53:00
9:53 PM,69.1,64.9,87,30.03,8.0,SE,9.2,-,0.00,Rain,Light Rain,140,2012-12-24 07:53:00
10:53 PM,69.1,64.9,87,30.01,10.0,South,5.8,-,0.00,,Overcast,170,2012-12-24 08:53:00
11:53 PM,69.1,64.0,84,30.01,10.0,SSE,5.8,-,N/A,,Overcast,150,2012-12-24 09:53:00